Regional Weather Roundup
Issued by NWS Charleston, WV

Home | Current Version | Previous Version | Text Only | Print | Product List | Glossary Off
Versions: 1 2 3 4 5 6 7 8 9 10 11 12 13 14 15 16 17 18 19 20 21 22 23 24 25 26 27 28 29 30 31 32 33 34 35 36 37 38 39 40 41 42 43 44 45 46 47 48

000
ASUS41 KRLX 020810
RWRRLX
West Virginia Regional Weather Roundup
National Weather Service Charleston WV
400 AM EDT TUE JUN 02 2015

Note: "fair" indicates few or no clouds below 12,000 feet with no
significant weather and/or obstructions to visibility.

WVZ003-020900-
Northern Panhandle of West Virginia

CITY           SKY/WX    TMP DP  RH WIND       PRES   REMARKS
WHEELING       CLOUDY    52  49  89 N7        30.10S
$$

WVZ009-020900-
Northwest West Virginia

CITY           SKY/WX    TMP DP  RH WIND       PRES   REMARKS
PARKERSBURG    CLOUDY    53  50  89 NE7       30.12F
$$

WVZ006-020900-
Western West Virginia

CITY           SKY/WX    TMP DP  RH WIND       PRES   REMARKS
HUNTINGTON     CLOUDY    53  53 100 CALM      30.09F FOG
$$

WVZ015-020900-
West Central West Virginia

CITY           SKY/WX    TMP DP  RH WIND       PRES   REMARKS
CHARLESTON     CLOUDY    55  53  93 CALM      30.07F FOG
$$

WVZ022-031-020900-
North Central West Virginia

CITY           SKY/WX    TMP DP  RH WIND       PRES   REMARKS
CLARKSBURG     CLOUDY    55  52  89 N5        30.07S
MORGANTOWN     CLOUDY    55  50  83 N8        30.08F
$$

WVZ025-035-042-045-020900-
Southern West Virginia

CITY           SKY/WX    TMP DP  RH WIND       PRES   REMARKS
BECKLEY        FOG       58  57  97 N7        30.07S VSB 1/2
LOGAN          CLOUDY    55  55 100 CALM      30.04S FOG
BLUEFIELD      CLOUDY    63  58  83 CALM      30.08F HAZE
LEWISBURG      MOCLDY    63  59  89 CALM      30.06S
$$

WVZ047-020900-
Northern Mountains of West Virginia

CITY           SKY/WX    TMP DP  RH WIND       PRES   REMARKS
ELKINS         CLOUDY    55  53  93 N5        30.07R FOG
$$

WVZ052-020900-
Eastern Panhandle of West Virginia

CITY           SKY/WX    TMP DP  RH WIND       PRES   REMARKS
MARTINSBURG    CLOUDY    62  60  93 N6        30.02S FOG
PETERSBURG     CLOUDY    58  56  95 CALM      30.06F FOG
$$



USA.gov is the U.S. government's official web portal to all federal, state and local government web resources and services.